[[{"header":{"parameterUnit":"m.s-1","parameterCategory":2,"la1":30.2991,"la2":30.254,"lo1":-89.0895,"lo2":-89.0444,"dy":0.0017,"dx":0.0017,"nx":28,"ny":28,"refTime":"2023-10-23T09:00:00:Z","depth":"0","parameterNumber":2,"parameterNumberName":"U-component_of_CURRENTS"},"data":[0,0,0,0,0,0,0,0,0,0,0,0,0,0,0,0,0,0,0,0,0,0,0,0,0,0,0,0,0,0,0,0,0,0,0,0,0,0,0,0,0,0,0,0,0,0,0,0,0,0,0,0,0,0,0,0,0,0,-0.3329,-0.333,0,-0.3378,-0.3379,-0.3379,-0.3353,-0.3353,-0.3352,-0.3351,-0.3238,-0.3235,-0.3233,0,0,0,0,0,0,0,0,0,0,0,0,0,-0.3181,-0.3184,-0.3329,-0.333,-0.3332,-0.3378,-0.3379,-0.3379,-0.3353,-0.3352,-0.3352,-0.3351,-0.3238,-0.3236,-0.3233,0,0,0,0,0,0,0,0,0,0,0,0,0,-0.3234,-0.3185,-0.3329,-0.3329,-0.3329,-0.3378,-0.3379,-0.3379,-0.3354,-0.3352,-0.3351,-0.335,-0.3239,-0.3236,-0.3233,-0.3236,0,0,-0.3222,-0.3221,0,0,0,0,0,0,0,0,-0.3231,-0.3239,-0.3328,-0.3329,-0.333,-0.3363,-0.3285,-0.3325,-0.3354,-0.3339,-0.3351,-0.335,-0.3269,-0.3263,-0.327,-0.3231,-0.3226,-0.3222,-0.322,-0.3218,-0.3217,0,0,0,0,0,0,0,-0.3228,-0.3237,-0.3343,-0.3329,-0.333,-0.3315,-0.3321,-0.3293,-0.3303,-0.334,-0.334,-0.3354,-0.3267,-0.3273,-0.3266,-0.3224,-0.3222,-0.3219,-0.3217,-0.3216,-0.3175,-0.3176,0,0,0,0,0,0,-0.3236,-0.3234,-0.3342,-0.3345,-0.3283,-0.3319,-0.3326,-0.3349,-0.3307,-0.3302,-0.3355,-0.3353,-0.328,-0.327,-0.3262,-0.3276,-0.3218,-0.3215,-0.3213,-0.3174,-0.3175,-0.3176,0,0,0,0,0,0,-0.3233,-0.3246,-0.334,-0.3294,-0.3305,-0.3324,-0.335,-0.3351,-0.3354,-0.3321,-0.3312,-0.3357,-0.3278,-0.3267,-0.3244,-0.327,-0.3214,-0.3211,-0.3173,-0.3175,-0.3176,-0.3294,0,0,0,0,0,0,-0.3229,-0.3245,-0.3256,-0.3295,-0.3309,-0.3371,-0.3352,-0.3353,-0.3368,-0.3365,-0.332,-0.3309,-0.3276,-0.3249,-0.324,-0.3264,-0.3208,-0.3172,-0.3174,-0.3175,-0.3289,-0.3299,-0.3308,0,0,0,0,0,-0.3223,-0.3254,-0.3256,-0.3269,-0.3327,-0.3372,-0.3377,-0.3382,-0.3369,-0.3377,-0.3349,-0.331,-0.3254,-0.3248,-0.3237,-0.326,-0.3171,-0.3173,-0.3175,-0.3284,-0.3297,-0.3308,0,0,0,0,0,0,-0.318,-0.3256,-0.3259,-0.3306,-0.3335,-0.337,-0.3385,-0.3386,-0.3375,-0.3364,-0.3322,-0.331,-0.3303,-0.3261,-0.3255,-0.3253,-0.3206,-0.3206,-0.3292,-0.3304,-0.3313,-0.3325,-0.3205,0,0,0,0,0,-0.3183,-0.3231,-0.3282,-0.3313,-0.3335,-0.3357,-0.3373,-0.338,-0.3383,-0.3378,-0.335,-0.3318,-0.3306,-0.3288,-0.3265,-0.3259,-0.3239,-0.3266,-0.3276,-0.3284,-0.3286,-0.3294,-0.3305,-0.3184,-0.3184,-0.3184,0,0,-0.3169,-0.322,-0.3241,-0.3308,-0.3331,-0.3374,-0.3363,-0.3396,-0.3421,-0.3365,-0.3373,-0.335,-0.3313,-0.3317,-0.3309,-0.3283,-0.331,-0.3287,-0.3295,-0.3292,-0.3298,-0.331,-0.332,-0.3185,-0.3185,-0.3185,0,0,-0.3177,-0.3219,-0.326,-0.3302,-0.3356,-0.338,-0.3392,-0.3429,-0.3433,-0.3443,-0.342,-0.3421,-0.3378,-0.3382,-0.3371,-0.3417,-0.3365,-0.3395,-0.345,-0.3459,-0.3469,-0.3478,-0.3482,-0.3491,-0.3396,-0.3396,-0.3396,0,-0.315,-0.323,-0.3271,-0.3326,-0.3371,-0.3388,-0.3437,-0.3451,-0.3468,-0.3484,-0.3451,-0.3447,-0.3419,-0.345,-0.3466,-0.3444,-0.3426,-0.3414,-0.3474,-0.3482,-0.3489,-0.3491,-0.3499,-0.3402,-0.3401,-0.3401,-0.34,0,-0.3193,-0.326,-0.3293,-0.3377,-0.3415,-0.347,-0.3509,-0.3529,-0.3534,-0.355,-0.3573,-0.3548,-0.3545,-0.3544,-0.3515,-0.3558,-0.3523,-0.3493,-0.3451,-0.3509,-0.3506,-0.3513,-0.3411,-0.3408,-0.3407,-0.3405,0,0,-0.3124,-0.3295,-0.3303,-0.3369,-0.3462,-0.3499,-0.3549,-0.3613,-0.364,-0.3648,-0.3683,-0.369,-0.3675,-0.3663,-0.3637,-0.3643,-0.3691,-0.3585,-0.3583,-0.3601,-0.37,-0.3436,-0.3417,-0.3662,-0.3663,-0.3665,-0.3684,0,-0.3146,-0.3286,-0.3352,-0.3457,-0.3538,-0.3587,-0.363,-0.3677,-0.3698,-0.3725,-0.3733,-0.374,-0.372,-0.3708,-0.3725,-0.3684,-0.3707,-0.3688,-0.3629,-0.3628,-0.3396,-0.3415,-0.3073,-0.3038,-0.3689,-0.369,-0.3691,0,-0.3159,-0.327,-0.3399,-0.3544,-0.3574,-0.3617,-0.3703,-0.3741,-0.3789,-0.3797,-0.3826,-0.3812,-0.3839,-0.3793,-0.3801,-0.378,-0.3758,-0.3731,-0.373,-0.3442,-0.3373,-0.308,-0.3024,-0.2858,-0.3699,-0.3698,-0.3698,0,-0.3121,-0.3291,-0.341,-0.3464,-0.3614,-0.3653,-0.3703,-0.3761,-0.3782,-0.3832,-0.3831,-0.3876,-0.3853,-0.386,-0.3802,-0.3803,-0.3779,-0.3778,-0.3541,-0.3524,-0.3195,-0.3143,-0.2971,-0.3803,-0.3803,-0.3802,-0.3802,0,-0.3144,-0.3219,-0.3403,-0.3468,-0.3551,-0.3647,-0.3699,-0.3743,-0.3792,-0.378,-0.3853,-0.3818,-0.3858,-0.3837,-0.3822,-0.3665,-0.3803,-0.3542,-0.35,-0.3223,-0.3176,-0.2983,-0.308,-0.3803,-0.3803,-0.3803,-0.3803,0,-0.3063,-0.3206,-0.3327,-0.3501,-0.3541,-0.3581,-0.3668,-0.3681,-0.3751,-0.373,-0.3736,-0.3774,-0.3702,-0.3728,-0.3705,-0.3626,-0.3429,-0.3479,-0.3139,-0.3052,-0.2608,-0.2727,-0.268,-0.2629,-0.3207,-0.3201,-0.3195,0,-0.303,-0.3105,-0.3302,-0.3333,-0.3401,-0.3482,-0.3503,-0.3623,-0.3628,-0.3653,-0.3616,-0.3583,-0.3432,-0.3323,-0.3195,-0.3098,-0.3181,-0.2771,-0.2698,-0.2508,-0.2616,-0.2762,-0.2739,-0.2347,-0.2335,-0.2325,-0.2317,0,-0.2919,-0.2998,-0.308,-0.3169,-0.3218,-0.3286,-0.3339,-0.3331,-0.3412,-0.3386,-0.3251,-0.3128,-0.2974,-0.2611,-0.2511,-0.2476,-0.2594,-0.2557,-0.2454,-0.1988,-0.205,-0.2,-0.2446,-0.2229,-0.2238,-0.2245,-0.2249,-0.2253,-0.275,-0.2767,-0.2859,-0.2902,-0.297,-0.2967,-0.2902,-0.2947,-0.2874,-0.2682,-0.2779,-0.2425,-0.209,-0.1814,-0.1811,-0.1529,-0.1936,-0.1421,-0.161,-0.1794,-0.1637,-0.1865,-0.1529,-0.1534,-0.1538,-0.1541,-0.1544,0,-0.2452,-0.2494,-0.2558,-0.2567,-0.2511,-0.2671,-0.2668,-0.2536,-0.2308,-0.2172,-0.1962,-0.139,-0.096,-0.0818,-0.0488,-0.0485,-0.0684,-0.0618,-0.0744,-0.0793,-0.0985,-0.0818,-0.0193,-0.0193,-0.0193,-0.0193,-0.0194,-0.0194,-0.2282,-0.2202,-0.2252,-0.2056,-0.2072,-0.1918,-0.1853,-0.1729,-0.1596,-0.1136,-0.0771,-0.0604,-0.0332,0.0074,0.0283,0.0166,-0.006,-0.014,-0.0406,-0.0471,-0.056,-0.0646,-0.0495,0.0187,0.0187,-0.0003,-0.0005,-0.0006]},{"header":{"parameterUnit":"m.s-1","parameterCategory":2,"la1":30.2991,"la2":30.254,"lo1":-89.0895,"lo2":-89.0444,"dy":0.0017,"dx":0.0017,"nx":28,"ny":28,"refTime":"2023-10-23T09:00:00:Z","depth":"0","parameterNumber":3,"parameterNumberName":"V-component_of_CURRENTS"},"data":[0,0,0,0,0,0,0,0,0,0,0,0,0,0,0,0,0,0,0,0,0,0,0,0,0,0,0,0,0,0,0,0,0,0,0,0,0,0,0,0,0,0,0,0,0,0,0,0,0,0,0,0,0,0,0,0,0,0,-0.129,-0.129,0,-0.1289,-0.1289,-0.1289,-0.1243,-0.1242,-0.1241,-0.124,-0.119,-0.119,-0.119,0,0,0,0,0,0,0,0,0,0,0,0,0,-0.1192,-0.1194,-0.129,-0.129,-0.1291,-0.1289,-0.1289,-0.1289,-0.1243,-0.1242,-0.1241,-0.1239,-0.1191,-0.119,-0.119,0,0,0,0,0,0,0,0,0,0,0,0,0,-0.1215,-0.1195,-0.129,-0.1269,-0.1268,-0.1289,-0.1289,-0.1289,-0.1243,-0.1242,-0.124,-0.1239,-0.1191,-0.119,-0.119,-0.1216,0,0,-0.1188,-0.1187,0,0,0,0,0,0,0,0,-0.1214,-0.1219,-0.1272,-0.1271,-0.1269,-0.1266,-0.1236,-0.1263,-0.1244,-0.125,-0.124,-0.1238,-0.1214,-0.1211,-0.1212,-0.1213,-0.1211,-0.1188,-0.1187,-0.1187,-0.1187,0,0,0,0,0,0,0,-0.1212,-0.1218,-0.1288,-0.1273,-0.1271,-0.1239,-0.1241,-0.1241,-0.1238,-0.1249,-0.1247,-0.1251,-0.1212,-0.1213,-0.121,-0.1211,-0.1188,-0.1187,-0.1187,-0.1187,-0.1197,-0.1198,0,0,0,0,0,0,-0.1223,-0.1217,-0.1288,-0.1288,-0.124,-0.1242,-0.1245,-0.1267,-0.1239,-0.1234,-0.1252,-0.1248,-0.1214,-0.1211,-0.1208,-0.1206,-0.1187,-0.1187,-0.1186,-0.1197,-0.1197,-0.1198,0,0,0,0,0,0,-0.1221,-0.123,-0.1288,-0.1252,-0.1258,-0.1246,-0.1271,-0.1268,-0.1266,-0.1242,-0.1235,-0.1253,-0.1213,-0.1209,-0.1211,-0.1205,-0.1186,-0.1186,-0.1196,-0.1197,-0.1198,-0.1222,0,0,0,0,0,0,-0.1218,-0.1229,-0.1251,-0.1254,-0.126,-0.1306,-0.1273,-0.1269,-0.1272,-0.1267,-0.1241,-0.1235,-0.1212,-0.1213,-0.1211,-0.1204,-0.1185,-0.1195,-0.1196,-0.1197,-0.122,-0.1224,-0.1226,0,0,0,0,0,-0.1215,-0.1258,-0.1253,-0.1261,-0.1291,-0.1308,-0.1308,-0.1291,-0.1273,-0.1282,-0.1263,-0.1236,-0.1218,-0.1213,-0.1211,-0.1203,-0.1195,-0.1196,-0.1197,-0.1219,-0.1223,-0.1226,0,0,0,0,0,0,-0.1225,-0.1258,-0.1252,-0.1301,-0.1304,-0.13,-0.1314,-0.1299,-0.1293,-0.1286,-0.1254,-0.1248,-0.1244,-0.1231,-0.1226,-0.1211,-0.1198,-0.1199,-0.1215,-0.1219,-0.1222,-0.1203,-0.1185,0,0,0,0,0,-0.124,-0.128,-0.129,-0.1327,-0.1334,-0.1323,-0.1328,-0.1317,-0.1311,-0.1306,-0.1289,-0.1269,-0.1251,-0.1241,-0.1231,-0.1233,-0.1215,-0.1224,-0.1227,-0.123,-0.1214,-0.1184,-0.1182,-0.1203,-0.1203,-0.1203,0,0,-0.1251,-0.1276,-0.1296,-0.1331,-0.1333,-0.1348,-0.1322,-0.1338,-0.1338,-0.1304,-0.1306,-0.1286,-0.1257,-0.125,-0.1246,-0.1235,-0.1224,-0.1232,-0.1234,-0.1216,-0.1185,-0.1183,-0.1181,-0.1204,-0.1204,-0.1203,0,0,-0.1289,-0.1319,-0.1356,-0.1366,-0.138,-0.1375,-0.1381,-0.1382,-0.137,-0.1378,-0.1341,-0.1315,-0.1313,-0.127,-0.1252,-0.1269,-0.1245,-0.1273,-0.1265,-0.1237,-0.1235,-0.1232,-0.1242,-0.124,-0.1268,-0.1269,-0.1269,0,-0.1293,-0.1347,-0.1365,-0.1395,-0.1401,-0.1389,-0.1406,-0.1403,-0.14,-0.1382,-0.1385,-0.1341,-0.1314,-0.127,-0.1266,-0.1271,-0.1269,-0.1252,-0.1239,-0.1236,-0.1233,-0.1243,-0.124,-0.127,-0.127,-0.127,-0.1269,0,-0.1351,-0.1386,-0.141,-0.1442,-0.1451,-0.147,-0.1463,-0.1462,-0.145,-0.143,-0.1401,-0.137,-0.1329,-0.1321,-0.1295,-0.1253,-0.1266,-0.1251,-0.1226,-0.1232,-0.1244,-0.124,-0.1272,-0.1271,-0.1271,-0.1271,0,0,-0.136,-0.1434,-0.1438,-0.1449,-0.1474,-0.1481,-0.1488,-0.1473,-0.1454,-0.1449,-0.1418,-0.1375,-0.1341,-0.1316,-0.128,-0.1247,-0.1228,-0.1237,-0.1235,-0.1241,-0.1198,-0.1081,-0.1067,-0.1213,-0.1211,-0.121,-0.1227,0,-0.1384,-0.1455,-0.1477,-0.1507,-0.1531,-0.1518,-0.1517,-0.1499,-0.1481,-0.1455,-0.1403,-0.1371,-0.1346,-0.1319,-0.1282,-0.1236,-0.1215,-0.1226,-0.1196,-0.1195,-0.1084,-0.1056,-0.0954,-0.0947,-0.1224,-0.1223,-0.1223,0,-0.142,-0.1459,-0.1512,-0.1527,-0.1531,-0.1541,-0.1516,-0.1513,-0.147,-0.1452,-0.1409,-0.1377,-0.1316,-0.1302,-0.1233,-0.1246,-0.1218,-0.1194,-0.1194,-0.1063,-0.1069,-0.0979,-0.0931,-0.0773,-0.1218,-0.1218,-0.1219,0,-0.1419,-0.147,-0.1512,-0.1524,-0.1548,-0.1542,-0.1536,-0.1506,-0.1489,-0.1445,-0.1425,-0.1367,-0.1328,-0.1288,-0.1222,-0.1234,-0.1156,-0.1171,-0.1052,-0.1047,-0.0937,-0.0921,-0.0715,-0.1123,-0.1123,-0.1123,-0.1123,0,-0.1443,-0.1462,-0.1513,-0.1536,-0.1539,-0.1545,-0.1531,-0.1514,-0.1484,-0.1441,-0.1416,-0.1367,-0.1318,-0.1264,-0.1227,-0.1112,-0.1162,-0.1031,-0.1021,-0.0946,-0.0932,-0.077,-0.0737,-0.1124,-0.1124,-0.1123,-0.1123,0,-0.1439,-0.1486,-0.152,-0.1549,-0.1551,-0.1549,-0.154,-0.1514,-0.1497,-0.1444,-0.143,-0.1368,-0.1278,-0.1234,-0.1157,-0.1094,-0.0913,-0.0973,-0.09,-0.0875,-0.0591,-0.0565,-0.042,-0.0325,-0.0848,-0.0845,-0.0842,0,-0.1442,-0.1475,-0.1527,-0.1528,-0.154,-0.154,-0.1523,-0.1519,-0.1487,-0.1423,-0.1382,-0.1302,-0.1199,-0.106,-0.0944,-0.0856,-0.0785,-0.0701,-0.0671,-0.0523,-0.049,-0.0521,-0.0454,-0.0578,-0.0573,-0.0569,-0.0566,0,-0.1417,-0.1451,-0.1474,-0.149,-0.1487,-0.148,-0.1457,-0.1438,-0.14,-0.1343,-0.1222,-0.1146,-0.1015,-0.0836,-0.0718,-0.0644,-0.0545,-0.0616,-0.0472,-0.0241,-0.0253,-0.0174,-0.066,-0.0533,-0.0536,-0.0538,-0.054,-0.0542,-0.1362,-0.1372,-0.1397,-0.1393,-0.1394,-0.1347,-0.1282,-0.1246,-0.1157,-0.0965,-0.101,-0.0764,-0.0716,-0.0511,-0.0427,-0.0156,-0.0278,-0.007,-0.0059,-0.011,0.0039,-0.0367,-0.0204,-0.0205,-0.0206,-0.0207,-0.0208,0,-0.1244,-0.1261,-0.1273,-0.1244,-0.1189,-0.123,-0.1161,-0.1037,-0.0858,-0.069,-0.0532,-0.0236,-0.0131,-0.0028,0.0171,0.0353,0.0361,0.0455,0.0438,0.0474,0.0124,0.0202,0.0478,0.0478,0.0477,0.0477,0.0477,0.0477,-0.1174,-0.1141,-0.1153,-0.1015,-0.0991,-0.0853,-0.0777,-0.0616,-0.0446,-0.0032,0.0284,0.0445,0.0491,0.0454,0.0687,0.0781,0.0916,0.0914,0.0947,0.0724,0.0675,0.0628,0.0716,0.1094,0.1095,0.1311,0.1313,0.1315]}],[{"header":{"parameterUnit":"m.s-1","parameterCategory":2,"la1":30.2991,"la2":30.254,"lo1":-89.0895,"lo2":-89.0444,"dy":0.0017,"dx":0.0017,"nx":28,"ny":28,"refTime":"2023-10-23T09:00:00:Z","depth":"2","parameterNumber":2,"parameterNumberName":"U-component_of_CURRENTS"},"data":[0,0,0,0,0,0,0,0,0,0,0,0,0,0,0,0,0,0,0,0,0,0,0,0,0,0,0,0,0,0,0,0,0,0,0,0,0,0,0,0,0,0,0,0,0,0,0,0,0,0,0,0,0,0,0,0,0,0,-0.1788,-0.179,0,-0.1856,-0.1856,-0.1856,-0.1864,-0.1864,-0.1864,-0.1864,-0.1734,-0.173,-0.1727,0,0,0,0,0,0,0,0,0,0,0,0,0,-0.1662,-0.1664,-0.1788,-0.179,-0.1792,-0.1856,-0.1856,-0.1856,-0.1864,-0.1864,-0.1864,-0.1864,-0.1735,-0.1731,-0.1727,0,0,0,0,0,0,0,0,0,0,0,0,0,-0.1713,-0.1664,-0.1788,-0.181,-0.1814,-0.1856,-0.1856,-0.1856,-0.1863,-0.1864,-0.1864,-0.1864,-0.1737,-0.1731,-0.1726,-0.1686,0,0,-0.1709,-0.1707,0,0,0,0,0,0,0,0,-0.171,-0.1716,-0.1805,-0.1809,-0.1813,-0.186,-0.1765,-0.1793,-0.1863,-0.1834,-0.1864,-0.1865,-0.1764,-0.1756,-0.1757,-0.168,-0.1674,-0.1709,-0.1705,-0.1703,-0.1701,0,0,0,0,0,0,0,-0.1706,-0.1714,-0.1805,-0.1807,-0.1812,-0.1817,-0.1823,-0.177,-0.1785,-0.1837,-0.184,-0.1863,-0.1763,-0.1763,-0.1754,-0.1672,-0.1709,-0.1704,-0.1701,-0.1698,-0.1571,-0.1571,0,0,0,0,0,0,-0.1718,-0.171,-0.1803,-0.1808,-0.1772,-0.1819,-0.1826,-0.1837,-0.179,-0.1788,-0.1863,-0.1863,-0.1772,-0.176,-0.1749,-0.1719,-0.1703,-0.1698,-0.1695,-0.1571,-0.1571,-0.1571,0,0,0,0,0,0,-0.1714,-0.1725,-0.1801,-0.1769,-0.178,-0.1822,-0.1833,-0.1838,-0.1844,-0.1814,-0.1806,-0.1866,-0.1772,-0.1757,-0.1712,-0.1713,-0.1695,-0.169,-0.1571,-0.1571,-0.1571,-0.1644,0,0,0,0,0,0,-0.171,-0.1722,-0.1723,-0.1769,-0.1783,-0.1823,-0.1834,-0.184,-0.1862,-0.1863,-0.1813,-0.1802,-0.1771,-0.1721,-0.1707,-0.1705,-0.1686,-0.1571,-0.1571,-0.1571,-0.1642,-0.1646,-0.165,0,0,0,0,0,-0.1705,-0.1697,-0.1722,-0.1734,-0.1785,-0.1824,-0.1829,-0.1854,-0.1862,-0.1859,-0.1835,-0.1803,-0.1709,-0.1716,-0.1699,-0.1696,-0.1571,-0.1571,-0.1571,-0.164,-0.1645,-0.165,0,0,0,0,0,0,-0.1649,-0.17,-0.1728,-0.1739,-0.1784,-0.1829,-0.1828,-0.1855,-0.1838,-0.183,-0.1798,-0.1784,-0.1742,-0.1707,-0.1715,-0.1659,-0.1636,-0.1632,-0.1694,-0.1698,-0.1703,-0.1663,-0.1682,0,0,0,0,0,-0.1641,-0.165,-0.1709,-0.1727,-0.1737,-0.1785,-0.1802,-0.1828,-0.1833,-0.1827,-0.1802,-0.1764,-0.1727,-0.1705,-0.166,-0.1626,-0.1575,-0.1613,-0.1618,-0.1622,-0.1578,-0.1563,-0.1562,-0.157,-0.157,-0.157,0,0,-0.1644,-0.1663,-0.1681,-0.1717,-0.1744,-0.1748,-0.1791,-0.1819,-0.1825,-0.1809,-0.1783,-0.1768,-0.1719,-0.1689,-0.1667,-0.1661,-0.1589,-0.1621,-0.1626,-0.1578,-0.1563,-0.1562,-0.1561,-0.157,-0.157,-0.157,0,0,-0.1625,-0.1651,-0.164,-0.1661,-0.1703,-0.1728,-0.1738,-0.1781,-0.1794,-0.179,-0.1778,-0.1769,-0.1713,-0.1693,-0.1671,-0.1665,-0.1609,-0.1656,-0.1649,-0.1638,-0.1637,-0.1636,-0.1558,-0.1549,-0.1666,-0.1666,-0.1666,0,-0.1624,-0.1612,-0.1649,-0.1631,-0.164,-0.1713,-0.1699,-0.1727,-0.1758,-0.1753,-0.1781,-0.1729,-0.171,-0.1668,-0.168,-0.1673,-0.1633,-0.1643,-0.1645,-0.1643,-0.164,-0.156,-0.155,-0.167,-0.1669,-0.1669,-0.1669,0,-0.1589,-0.1579,-0.157,-0.1568,-0.1579,-0.1589,-0.1632,-0.1646,-0.1682,-0.171,-0.1698,-0.1705,-0.1675,-0.1689,-0.1681,-0.1654,-0.1619,-0.1654,-0.1637,-0.1644,-0.1559,-0.1546,-0.1675,-0.1674,-0.1672,-0.1672,0,0,-0.1603,-0.1553,-0.1556,-0.1527,-0.1544,-0.1553,-0.1551,-0.1566,-0.1574,-0.1616,-0.1614,-0.1607,-0.164,-0.1615,-0.1634,-0.1634,-0.1606,-0.1638,-0.1636,-0.1565,-0.1526,-0.1442,-0.142,-0.1658,-0.1656,-0.1655,-0.1469,0,-0.157,-0.1503,-0.1494,-0.1453,-0.142,-0.1455,-0.1452,-0.1478,-0.1521,-0.1541,-0.1574,-0.1582,-0.1608,-0.1628,-0.1628,-0.1613,-0.1577,-0.1648,-0.1521,-0.1514,-0.1447,-0.1405,-0.1357,-0.1183,-0.1457,-0.1454,-0.1453,0,-0.1544,-0.1491,-0.1431,-0.1372,-0.1364,-0.136,-0.1363,-0.1373,-0.1413,-0.1451,-0.1474,-0.1515,-0.151,-0.1567,-0.1502,-0.1549,-0.1516,-0.1507,-0.1501,-0.1377,-0.1408,-0.1221,-0.1149,-0.1431,-0.1433,-0.1435,-0.1436,0,-0.1529,-0.1453,-0.1396,-0.1383,-0.1338,-0.1323,-0.1314,-0.1344,-0.1353,-0.1406,-0.1432,-0.1438,-0.1441,-0.1432,-0.1406,-0.1463,-0.1317,-0.1405,-0.1271,-0.1263,-0.1164,-0.115,-0.1326,-0.1326,-0.1327,-0.1327,-0.1328,0,-0.1499,-0.1453,-0.1388,-0.1362,-0.1297,-0.1292,-0.1272,-0.1277,-0.1313,-0.1316,-0.139,-0.1387,-0.1413,-0.1356,-0.1353,-0.1232,-0.1265,-0.1215,-0.1206,-0.1186,-0.1176,-0.1355,-0.1361,-0.132,-0.1322,-0.1323,-0.1324,0,-0.1492,-0.1458,-0.1376,-0.131,-0.1287,-0.1249,-0.1222,-0.1223,-0.1269,-0.128,-0.1299,-0.1308,-0.1231,-0.1207,-0.1143,-0.1127,-0.1063,-0.1004,-0.0936,-0.0922,-0.1027,-0.1039,-0.0854,-0.0849,-0.0845,-0.0842,-0.0839,0,-0.1466,-0.1429,-0.1336,-0.1292,-0.126,-0.1212,-0.1188,-0.1198,-0.121,-0.1224,-0.1221,-0.1152,-0.1092,-0.0927,-0.0873,-0.0778,-0.0876,-0.0688,-0.0805,-0.0965,-0.0977,-0.0995,-0.1011,-0.0692,-0.0688,-0.0685,-0.0683,0,-0.1403,-0.1394,-0.1341,-0.1251,-0.1203,-0.1134,-0.1106,-0.1102,-0.113,-0.1137,-0.1092,-0.1039,-0.0877,-0.0746,-0.0607,-0.0569,-0.0718,-0.0623,-0.0793,-0.0831,-0.0802,-0.0817,-0.0841,-0.0656,-0.0658,-0.066,-0.0662,-0.0663,-0.1361,-0.1323,-0.1276,-0.1188,-0.1133,-0.1059,-0.0996,-0.0995,-0.0964,-0.0937,-0.0936,-0.0836,-0.0777,-0.0538,-0.0451,-0.0385,-0.0465,-0.0499,-0.0514,-0.053,-0.0557,-0.0524,-0.0326,-0.0326,-0.0327,-0.0328,-0.0328,0,-0.1276,-0.1258,-0.12,-0.1094,-0.1008,-0.1007,-0.0941,-0.0877,-0.0812,-0.0779,-0.0723,-0.0611,-0.0488,-0.0426,-0.0288,-0.0244,-0.0283,-0.0234,-0.0334,-0.0359,-0.0382,-0.0408,-0.0133,-0.0132,-0.0132,-0.0131,0,0,-0.1235,-0.1177,-0.116,-0.0992,-0.0932,-0.0804,-0.075,-0.0667,-0.0611,-0.051,-0.0466,-0.0467,-0.0444,-0.0332,-0.0267,-0.0185,-0.0269,-0.0149,-0.0306,-0.045,-0.0472,-0.0529,-0.0594,0,0,0,0,0]},{"header":{"parameterUnit":"m.s-1","parameterCategory":2,"la1":30.2991,"la2":30.254,"lo1":-89.0895,"lo2":-89.0444,"dy":0.0017,"dx":0.0017,"nx":28,"ny":28,"refTime":"2023-10-23T09:00:00:Z","depth":"2","parameterNumber":3,"parameterNumberName":"V-component_of_CURRENTS"},"data":[0,0,0,0,0,0,0,0,0,0,0,0,0,0,0,0,0,0,0,0,0,0,0,0,0,0,0,0,0,0,0,0,0,0,0,0,0,0,0,0,0,0,0,0,0,0,0,0,0,0,0,0,0,0,0,0,0,0,0.0143,0.0146,0,0.0418,0.0421,0.0424,0.0588,0.0589,0.059,0.0591,0.0812,0.0817,0.0822,0,0,0,0,0,0,0,0,0,0,0,0,0,-0.0084,-0.0082,0.0142,0.0146,0.015,0.0417,0.0421,0.0425,0.0588,0.0589,0.059,0.0591,0.081,0.0816,0.0822,0,0,0,0,0,0,0,0,0,0,0,0,0,0.0083,-0.0082,0.0142,0.0264,0.0278,0.0417,0.0421,0.0426,0.0588,0.0589,0.0591,0.0592,0.0808,0.0816,0.0823,0.0845,0,0,0.0847,0.085,0,0,0,0,0,0,0,0,0.0073,0.0091,0.0243,0.0256,0.0272,0.0471,0.0423,0.0564,0.0588,0.0469,0.0591,0.0592,0.0693,0.071,0.0758,0.0855,0.0865,0.0847,0.0852,0.0855,0.0857,0,0,0,0,0,0,0,0.0061,0.0081,0.025,0.0246,0.0264,0.036,0.0383,0.0451,0.0568,0.048,0.0492,0.0524,0.07,0.075,0.0764,0.0868,0.0847,0.0854,0.0859,0.0862,0.1077,0.1078,0,0,0,0,0,0,0.002,0.0069,0.0242,0.0259,0.0175,0.0362,0.0388,0.0405,0.057,0.0597,0.0523,0.0531,0.0737,0.0755,0.0773,0.0836,0.0855,0.0862,0.0867,0.1076,0.1078,0.1079,0,0,0,0,0,0,0.0014,0.0032,0.0231,0.0172,0.0204,0.0363,0.0382,0.041,0.0476,0.0603,0.0629,0.0561,0.0739,0.0762,0.0851,0.0844,0.0866,0.0873,0.1075,0.1077,0.1078,0.0944,0,0,0,0,0,0,0.0006,0.0027,0.0038,0.0169,0.0206,0.0299,0.0381,0.0414,0.0493,0.0507,0.0644,0.0666,0.0741,0.0839,0.0858,0.0855,0.0879,0.1073,0.1076,0.1078,0.0947,0.0941,0.0935,0,0,0,0,0,-0.0004,-0.0019,0.0036,0.0058,0.021,0.0298,0.0325,0.0444,0.0493,0.051,0.0618,0.0662,0.0867,0.0846,0.0868,0.0867,0.1072,0.1075,0.1078,0.0949,0.0942,0.0936,0,0,0,0,0,0,-0.0086,0.0001,0.0063,0.0085,0.0184,0.0326,0.0351,0.0438,0.054,0.0552,0.0675,0.0703,0.0786,0.0848,0.0822,0.0942,0.0978,0.0985,0.0872,0.0866,0.0861,0.0796,0.0885,0,0,0,0,0,-0.0107,-0.01,0.0017,0.0049,0.0073,0.0215,0.0272,0.0352,0.0457,0.0505,0.0612,0.072,0.0813,0.0854,0.0949,0.0998,0.104,0.1018,0.1012,0.1006,0.0974,0.1021,0.1014,0.1087,0.1087,0.1087,0,0,-0.0112,-0.007,-0.0052,0.0032,0.0108,0.0135,0.025,0.0316,0.0361,0.0508,0.0592,0.0707,0.0828,0.0901,0.0941,0.0948,0.1017,0.101,0.1003,0.0973,0.1023,0.1015,0.1008,0.1089,0.1089,0.1088,0,0,-0.0152,-0.0109,-0.0125,-0.0079,0.0012,0.0087,0.0098,0.0234,0.0307,0.0411,0.0528,0.063,0.0781,0.0858,0.0917,0.0932,0.0995,0.0976,0.0878,0.0924,0.0917,0.0911,0.0976,0.0977,0.0959,0.0958,0.0958,0,-0.0158,-0.0162,-0.0105,-0.0121,-0.0087,0.0047,0.0047,0.0129,0.0295,0.0331,0.0416,0.0639,0.0755,0.0817,0.0846,0.0912,0.0955,0.0885,0.091,0.0905,0.0901,0.0969,0.0971,0.0952,0.0953,0.0954,0.0954,0,-0.0212,-0.0212,-0.023,-0.0212,-0.0178,-0.0154,-0.0059,-0.0005,0.0107,0.0204,0.032,0.0498,0.0615,0.0687,0.0782,0.0812,0.086,0.0901,0.0907,0.0884,0.096,0.0964,0.0943,0.0946,0.0947,0.0949,0,0,-0.0215,-0.0259,-0.0255,-0.0271,-0.0226,-0.02,-0.0183,-0.0115,-0.0094,0.0069,0.012,0.0311,0.0406,0.048,0.0613,0.0673,0.0724,0.0767,0.0772,0.0795,0.0836,0.0789,0.0791,0.0761,0.076,0.076,0.0906,0,-0.0252,-0.0321,-0.0323,-0.0354,-0.038,-0.0319,-0.031,-0.0245,-0.0142,-0.0067,0.0086,0.02,0.0324,0.0407,0.0473,0.0701,0.0727,0.0681,0.0886,0.0892,0.0822,0.079,0.073,0.0845,0.0911,0.0912,0.0913,0,-0.0292,-0.0336,-0.0397,-0.0443,-0.0449,-0.0448,-0.043,-0.0398,-0.0315,-0.0233,-0.0146,-0.0009,0.0135,0.0244,0.0498,0.0466,0.0607,0.0756,0.0766,0.0759,0.0851,0.0881,0.0852,0.0921,0.0921,0.092,0.0919,0,-0.0321,-0.0382,-0.0436,-0.0448,-0.0482,-0.0496,-0.049,-0.0445,-0.042,-0.0337,-0.0278,-0.0141,0.0017,0.0172,0.0474,0.0493,0.0745,0.0812,0.0872,0.0874,0.0877,0.0876,0.0893,0.0892,0.0892,0.0892,0.0891,0,-0.0369,-0.0405,-0.0453,-0.0485,-0.0541,-0.0542,-0.0566,-0.0551,-0.0504,-0.0467,-0.0358,-0.0261,0.001,0.0194,0.0408,0.0658,0.0679,0.083,0.0887,0.0834,0.0828,0.0936,0.094,0.0897,0.0896,0.0895,0.0894,0,-0.0395,-0.0428,-0.0496,-0.0547,-0.0564,-0.0597,-0.0621,-0.0629,-0.0576,-0.0516,-0.0489,-0.0309,-0.0073,0.0151,0.0468,0.061,0.0828,0.0878,0.0799,0.0841,0.0947,0.0942,0.0979,0.0979,0.0978,0.0977,0.0977,0,-0.0419,-0.0458,-0.0537,-0.0577,-0.0601,-0.0643,-0.067,-0.0663,-0.0652,-0.052,-0.048,-0.0285,-0.0124,0.0266,0.0522,0.0785,0.0802,0.0847,0.0844,0.0893,0.0947,0.0943,0.094,0.0836,0.0835,0.0833,0.0832,0,-0.0458,-0.0479,-0.0541,-0.0626,-0.0669,-0.0719,-0.074,-0.0747,-0.0694,-0.0636,-0.049,-0.0363,-0.0007,0.026,0.0535,0.0687,0.0798,0.0825,0.0907,0.0791,0.076,0.0812,0.0814,0.082,0.0822,0.0822,0.0823,0.0824,-0.0471,-0.0524,-0.06,-0.0681,-0.0729,-0.0769,-0.0802,-0.0792,-0.0781,-0.067,-0.0522,-0.0296,-0.0043,0.0361,0.0535,0.0709,0.077,0.0811,0.0816,0.0821,0.0745,0.071,0.0751,0.0752,0.0752,0.0753,0.0753,0,-0.0508,-0.0565,-0.0648,-0.0747,-0.0804,-0.0808,-0.0834,-0.0835,-0.081,-0.0674,-0.0543,-0.0253,0.001,0.0268,0.0554,0.0709,0.0722,0.0683,0.068,0.0691,0.0701,0.0618,0.0591,0.0591,0.0591,0.059,0,0,-0.0532,-0.0627,-0.0685,-0.0796,-0.084,-0.0894,-0.0901,-0.0869,-0.0787,-0.067,-0.0498,-0.028,0.0061,0.0199,0.0364,0.049,0.0538,0.0478,0.0595,0.0578,0.0585,0.0764,0.0647,0,0,0,0,0]}],[{"header":{"parameterUnit":"m.s-1","parameterCategory":2,"la1":30.2991,"la2":30.254,"lo1":-89.0895,"lo2":-89.0444,"dy":0.0017,"dx":0.0017,"nx":28,"ny":28,"refTime":"2023-10-23T09:00:00:Z","depth":"4","parameterNumber":2,"parameterNumberName":"U-component_of_CURRENTS"},"data":[0,0,0,0,0,0,0,0,0,0,0,0,0,0,0,0,0,0,0,0,0,0,0,0,0,0,0,0,0,0,0,0,0,0,0,0,0,0,0,0,0,0,0,0,0,0,0,0,0,0,0,0,0,0,0,0,0,0,-0.0787,-0.0788,0,-0.0819,-0.0819,-0.0819,-0.0824,-0.0824,-0.0824,-0.0824,-0.0873,-0.0875,-0.0876,0,0,0,0,0,0,0,0,0,0,0,0,0,-0.0731,-0.0732,-0.0787,-0.0788,-0.0788,-0.0819,-0.0819,-0.082,-0.0824,-0.0824,-0.0824,-0.0824,-0.0873,-0.0875,-0.0876,0,0,0,0,0,0,0,0,0,0,0,0,0,-0.0757,-0.0732,-0.0787,-0.0795,-0.0797,-0.0819,-0.0819,-0.082,-0.0824,-0.0824,-0.0824,-0.0824,-0.0872,-0.0874,-0.0877,-0.0895,0,0,-0.0883,-0.0884,0,0,0,0,0,0,0,0,-0.0755,-0.0759,-0.0794,-0.0795,-0.0796,-0.0819,-0.0818,-0.0846,-0.0824,-0.0812,-0.0824,-0.0824,-0.0858,-0.0861,-0.0865,-0.0897,-0.0899,-0.0884,-0.0885,-0.0886,-0.0886,0,0,0,0,0,0,0,-0.0754,-0.0758,-0.0798,-0.0794,-0.0796,-0.0798,-0.0801,-0.0823,-0.0835,-0.0813,-0.0814,-0.082,-0.0858,-0.0863,-0.0867,-0.09,-0.0883,-0.0885,-0.0887,-0.0888,-0.0965,-0.0965,0,0,0,0,0,0,-0.0753,-0.0756,-0.0797,-0.08,-0.0776,-0.0799,-0.0802,-0.0811,-0.0835,-0.0838,-0.082,-0.082,-0.086,-0.0864,-0.0869,-0.0915,-0.0886,-0.0888,-0.0889,-0.0964,-0.0965,-0.0966,0,0,0,0,0,0,-0.0752,-0.0756,-0.0796,-0.0779,-0.0785,-0.08,-0.0809,-0.0811,-0.0828,-0.084,-0.0844,-0.0836,-0.086,-0.0865,-0.0891,-0.0916,-0.0889,-0.0891,-0.0963,-0.0964,-0.0965,-0.0993,0,0,0,0,0,0,-0.075,-0.0756,-0.0764,-0.0779,-0.0786,-0.0815,-0.081,-0.0812,-0.0832,-0.0832,-0.0854,-0.0858,-0.086,-0.0887,-0.0893,-0.0919,-0.0893,-0.0962,-0.0964,-0.0965,-0.0992,-0.0995,-0.0999,0,0,0,0,0,-0.0748,-0.076,-0.0764,-0.0769,-0.0795,-0.0815,-0.0819,-0.0828,-0.0833,-0.0841,-0.0853,-0.0858,-0.09,-0.089,-0.0896,-0.0923,-0.0961,-0.0963,-0.0965,-0.099,-0.0995,-0.0998,0,0,0,0,0,0,-0.074,-0.0762,-0.0767,-0.0785,-0.0802,-0.0817,-0.0829,-0.0838,-0.0854,-0.0859,-0.0867,-0.0872,-0.0901,-0.0908,-0.0897,-0.0948,-0.0932,-0.0935,-0.0949,-0.0954,-0.0957,-0.0955,-0.0894,0,0,0,0,0,-0.0742,-0.0759,-0.0777,-0.0794,-0.0803,-0.0819,-0.083,-0.0839,-0.0855,-0.0863,-0.0877,-0.0895,-0.0912,-0.0929,-0.094,-0.0975,-0.0967,-0.0996,-0.0999,-0.1002,-0.1004,-0.1014,-0.1019,-0.0971,-0.0971,-0.0971,0,0,-0.0745,-0.076,-0.077,-0.0793,-0.0807,-0.0823,-0.0825,-0.0849,-0.0867,-0.0867,-0.0897,-0.0906,-0.0921,-0.095,-0.0965,-0.0963,-0.1009,-0.1005,-0.1007,-0.1007,-0.1017,-0.1021,-0.1025,-0.0972,-0.0972,-0.0972,0,0,-0.0753,-0.0772,-0.0784,-0.0799,-0.0824,-0.0837,-0.0847,-0.087,-0.0885,-0.0911,-0.0916,-0.0937,-0.0967,-0.0981,-0.0992,-0.1025,-0.1021,-0.1037,-0.1064,-0.1074,-0.1078,-0.1081,-0.1064,-0.1065,-0.1047,-0.1047,-0.1047,0,-0.0756,-0.0772,-0.0791,-0.0804,-0.0822,-0.0845,-0.0862,-0.0882,-0.0911,-0.0931,-0.0923,-0.0971,-0.0979,-0.1023,-0.1029,-0.1034,-0.103,-0.1047,-0.1078,-0.1081,-0.1084,-0.1066,-0.1067,-0.1048,-0.1048,-0.1048,-0.1048,0,-0.0761,-0.0782,-0.0794,-0.0819,-0.0841,-0.0863,-0.0892,-0.092,-0.0941,-0.0959,-0.1002,-0.1011,-0.1039,-0.105,-0.1048,-0.1087,-0.1073,-0.1074,-0.1066,-0.1091,-0.1069,-0.107,-0.1051,-0.105,-0.1049,-0.1049,0,0,-0.0746,-0.079,-0.0793,-0.0813,-0.0853,-0.0873,-0.0914,-0.0957,-0.0988,-0.1015,-0.1052,-0.108,-0.1088,-0.11,-0.1111,-0.1124,-0.1131,-0.1113,-0.1112,-0.1093,-0.1137,-0.1037,-0.1028,-0.1144,-0.1144,-0.1145,-0.1109,0,-0.0746,-0.0774,-0.0798,-0.0837,-0.0858,-0.09,-0.0936,-0.0981,-0.1014,-0.1053,-0.1083,-0.111,-0.1109,-0.1122,-0.1139,-0.1134,-0.1137,-0.1139,-0.1119,-0.1117,-0.1024,-0.1028,-0.1147,-0.1109,-0.111,-0.111,-0.111,0,-0.0734,-0.0761,-0.0793,-0.0856,-0.0869,-0.0897,-0.0967,-0.1001,-0.1063,-0.1088,-0.1131,-0.1145,-0.1178,-0.1162,-0.1176,-0.118,-0.1159,-0.1149,-0.1148,-0.1046,-0.102,-0.1083,-0.1111,-0.1111,-0.1111,-0.1111,-0.1111,0,-0.0704,-0.0758,-0.0788,-0.0806,-0.0874,-0.0907,-0.0947,-0.1012,-0.1042,-0.1107,-0.112,-0.1175,-0.1179,-0.119,-0.1171,-0.1176,-0.1167,-0.1168,-0.1058,-0.105,-0.114,-0.1137,-0.1166,-0.1166,-0.1166,-0.1166,-0.1166,0,-0.0685,-0.0713,-0.078,-0.0794,-0.084,-0.0895,-0.0945,-0.0993,-0.105,-0.1074,-0.1129,-0.1137,-0.1185,-0.1187,-0.1179,-0.1113,-0.1172,-0.1054,-0.1036,-0.115,-0.1149,-0.1139,-0.1136,-0.1165,-0.1165,-0.1165,-0.1166,0,-0.0643,-0.0684,-0.0726,-0.08,-0.0825,-0.0857,-0.0929,-0.0962,-0.1014,-0.1044,-0.1058,-0.1105,-0.1094,-0.1123,-0.1124,-0.109,-0.1061,-0.1022,-0.1126,-0.1116,-0.0933,-0.0933,-0.0889,-0.0885,-0.0882,-0.088,-0.0877,0,-0.0622,-0.0638,-0.0715,-0.0741,-0.0775,-0.0829,-0.0865,-0.0936,-0.0963,-0.1006,-0.1009,-0.1015,-0.1035,-0.0955,-0.0998,-0.0973,-0.096,-0.0939,-0.0948,-0.0918,-0.0906,-0.0911,-0.0914,-0.0872,-0.0871,-0.087,-0.087,0,-0.0586,-0.0616,-0.0649,-0.0697,-0.0739,-0.0781,-0.0833,-0.0839,-0.0907,-0.0954,-0.0921,-0.0902,-0.0879,-0.088,-0.0863,-0.0852,-0.0958,-0.0906,-0.0912,-0.092,-0.0897,-0.0889,-0.0897,-0.0858,-0.086,-0.0861,-0.0862,0,-0.056,-0.057,-0.0612,-0.0649,-0.0696,-0.0716,-0.0754,-0.0773,-0.0796,-0.0844,-0.0826,-0.0831,-0.0864,-0.0814,-0.0806,-0.0781,-0.0763,-0.0743,-0.0758,-0.0771,-0.075,-0.0704,-0.0583,0,0,0,0,0,-0.0533,-0.0534,-0.0563,-0.0597,-0.0639,-0.0661,-0.0726,-0.0766,-0.082,-0.0768,-0.0793,-0.0765,-0.0719,-0.0728,-0.0675,-0.0753,-0.0777,-0.0688,-0.0767,-0.0797,-0.081,-0.0796,0,0,0,0,0,0,-0.0514,-0.0534,-0.054,-0.054,-0.0549,-0.0585,-0.062,-0.0663,-0.0644,-0.0694,-0.0675,-0.07,-0.0677,-0.0725,-0.0649,-0.0652,-0.0681,-0.0697,-0.0694,-0.0789,-0.0801,-0.0811,-0.0802,0,0,0,0,0]},{"header":{"parameterUnit":"m.s-1","parameterCategory":2,"la1":30.2991,"la2":30.254,"lo1":-89.0895,"lo2":-89.0444,"dy":0.0017,"dx":0.0017,"nx":28,"ny":28,"refTime":"2023-10-23T09:00:00:Z","depth":"4","parameterNumber":3,"parameterNumberName":"V-component_of_CURRENTS"},"data":[0,0,0,0,0,0,0,0,0,0,0,0,0,0,0,0,0,0,0,0,0,0,0,0,0,0,0,0,0,0,0,0,0,0,0,0,0,0,0,0,0,0,0,0,0,0,0,0,0,0,0,0,0,0,0,0,0,0,-0.0308,-0.0308,0,-0.0315,-0.0315,-0.0315,-0.0306,-0.0306,-0.0306,-0.0306,-0.0258,-0.0256,-0.0255,0,0,0,0,0,0,0,0,0,0,0,0,0,-0.0297,-0.0297,-0.0308,-0.0308,-0.0308,-0.0315,-0.0315,-0.0315,-0.0306,-0.0306,-0.0306,-0.0305,-0.0258,-0.0257,-0.0255,0,0,0,0,0,0,0,0,0,0,0,0,0,-0.0302,-0.0297,-0.0308,-0.0305,-0.0305,-0.0315,-0.0315,-0.0315,-0.0306,-0.0306,-0.0306,-0.0305,-0.0258,-0.0257,-0.0255,-0.0253,0,0,-0.025,-0.025,0,0,0,0,0,0,0,0,-0.0302,-0.0302,-0.0305,-0.0305,-0.0305,-0.031,-0.0294,-0.0292,-0.0307,-0.0305,-0.0306,-0.0305,-0.0271,-0.0268,-0.027,-0.0251,-0.0249,-0.025,-0.0249,-0.0249,-0.0248,0,0,0,0,0,0,0,-0.0301,-0.0302,-0.031,-0.0306,-0.0306,-0.0308,-0.0308,-0.0294,-0.0288,-0.0305,-0.0305,-0.0307,-0.027,-0.0272,-0.0269,-0.0248,-0.025,-0.0249,-0.0248,-0.0247,-0.0234,-0.0234,0,0,0,0,0,0,-0.0302,-0.0302,-0.031,-0.031,-0.0304,-0.0308,-0.0308,-0.0308,-0.029,-0.0287,-0.0307,-0.0307,-0.0275,-0.0271,-0.0267,-0.0258,-0.0249,-0.0247,-0.0246,-0.0233,-0.0234,-0.0235,0,0,0,0,0,0,-0.0302,-0.0303,-0.0309,-0.0307,-0.0308,-0.0309,-0.0309,-0.0309,-0.0311,-0.0292,-0.0288,-0.031,-0.0274,-0.0269,-0.0258,-0.0256,-0.0246,-0.0245,-0.0233,-0.0234,-0.0234,-0.0243,0,0,0,0,0,0,-0.0301,-0.0302,-0.0307,-0.0307,-0.0308,-0.0318,-0.0309,-0.0309,-0.0313,-0.0312,-0.0293,-0.0288,-0.0273,-0.0261,-0.0257,-0.0254,-0.0244,-0.0232,-0.0233,-0.0234,-0.0242,-0.0244,-0.0246,0,0,0,0,0,-0.0301,-0.031,-0.0307,-0.0308,-0.0312,-0.0319,-0.032,-0.0318,-0.0314,-0.0318,-0.0305,-0.0289,-0.0265,-0.026,-0.0255,-0.0252,-0.0231,-0.0233,-0.0234,-0.0241,-0.0244,-0.0246,0,0,0,0,0,0,-0.0311,-0.031,-0.0306,-0.0315,-0.0317,-0.0318,-0.0326,-0.0321,-0.0316,-0.0315,-0.0293,-0.0287,-0.0281,-0.0269,-0.0264,-0.0254,-0.0247,-0.0247,-0.0254,-0.0256,-0.0258,-0.0248,-0.0243,0,0,0,0,0,-0.0314,-0.0319,-0.0318,-0.0326,-0.0328,-0.0326,-0.033,-0.0328,-0.0323,-0.0321,-0.0306,-0.0294,-0.0283,-0.0272,-0.0265,-0.0253,-0.0215,-0.0251,-0.0253,-0.0254,-0.0245,-0.017,-0.0163,-0.0239,-0.0239,-0.0239,0,0,-0.0323,-0.0323,-0.0327,-0.0329,-0.0331,-0.0338,-0.0327,-0.0336,-0.0339,-0.0315,-0.0315,-0.0302,-0.0285,-0.0277,-0.0272,-0.0263,-0.0219,-0.0256,-0.0257,-0.0246,-0.0171,-0.0163,-0.0156,-0.024,-0.024,-0.024,0,0,-0.0344,-0.034,-0.0351,-0.0353,-0.0356,-0.0353,-0.0355,-0.0354,-0.0351,-0.0354,-0.0334,-0.0313,-0.0311,-0.0282,-0.0271,-0.0278,-0.0237,-0.0288,-0.0278,-0.0206,-0.0198,-0.0191,-0.0153,-0.0142,-0.0281,-0.0281,-0.0281,0,-0.0355,-0.0366,-0.0357,-0.0367,-0.0373,-0.0359,-0.0373,-0.0368,-0.0363,-0.0353,-0.036,-0.0324,-0.0309,-0.0271,-0.0279,-0.0278,-0.0244,-0.0268,-0.0205,-0.0197,-0.0189,-0.0151,-0.0139,-0.0282,-0.0281,-0.0281,-0.0281,0,-0.0382,-0.0392,-0.04,-0.0404,-0.0406,-0.0418,-0.0408,-0.0402,-0.0399,-0.0387,-0.0361,-0.0334,-0.0306,-0.0302,-0.0295,-0.0235,-0.0233,-0.0219,-0.0192,-0.0181,-0.0144,-0.0131,-0.0282,-0.0282,-0.0282,-0.0282,0,0,-0.0405,-0.0417,-0.0421,-0.0429,-0.0428,-0.0433,-0.043,-0.0418,-0.0408,-0.0391,-0.037,-0.034,-0.031,-0.0295,-0.0268,-0.0206,-0.0132,-0.0192,-0.0188,-0.0143,0.0008,-0.0004,0.0009,-0.01,-0.0097,-0.0095,0.0005,0,-0.0431,-0.046,-0.0455,-0.0478,-0.0491,-0.0472,-0.0473,-0.0455,-0.0435,-0.041,-0.0356,-0.0335,-0.0312,-0.0298,-0.0227,-0.0164,-0.0095,-0.0162,-0.0019,-0.0015,-0.0016,0.0025,-0.0087,0.0015,0.0018,0.0021,0.0022,0,-0.0457,-0.0473,-0.0505,-0.0514,-0.0517,-0.0527,-0.051,-0.0505,-0.0454,-0.0439,-0.0381,-0.0346,-0.0264,-0.0249,-0.0096,-0.0141,-0.0064,-0.0006,-0.0001,0.0006,-0.0002,0.0006,0.0046,0.0045,0.0043,0.0041,0.004,0,-0.0481,-0.0504,-0.0532,-0.0537,-0.0546,-0.0551,-0.0548,-0.0514,-0.0504,-0.0446,-0.0433,-0.033,-0.0294,-0.0166,-0.006,-0.007,0.0107,0.0109,0.0178,0.0176,0.0161,0.0152,0.0243,0.0243,0.0243,0.0243,0.0242,0,-0.0504,-0.0527,-0.0548,-0.0564,-0.0588,-0.0581,-0.0586,-0.0566,-0.0532,-0.0514,-0.0446,-0.041,-0.0269,-0.0163,-0.0049,0.0099,0.0125,0.0195,0.0216,0.0148,0.0137,0.0169,0.0159,0.0246,0.0245,0.0245,0.0244,0,-0.0522,-0.0539,-0.0571,-0.0594,-0.0603,-0.0617,-0.0623,-0.0617,-0.0588,-0.056,-0.0546,-0.046,-0.0324,-0.0178,0.0014,0.0096,0.0247,0.0298,0.0196,0.0207,0.0263,0.0251,0.0388,0.0389,0.0389,0.039,0.039,0,-0.0532,-0.0553,-0.0596,-0.0617,-0.0631,-0.065,-0.0662,-0.0645,-0.0633,-0.0587,-0.0571,-0.0461,-0.0383,-0.0126,0.0026,0.0255,0.0285,0.0348,0.033,0.0278,0.0285,0.0272,0.026,0.0391,0.0391,0.0392,0.0392,0,-0.0549,-0.0569,-0.0595,-0.0643,-0.0669,-0.0689,-0.0701,-0.0697,-0.0669,-0.065,-0.0575,-0.0455,-0.0309,-0.0125,0.0048,0.0213,0.0299,0.0356,0.0355,0.0339,0.0284,0.0287,0.0274,0.0394,0.0394,0.0393,0.0393,0,-0.056,-0.0582,-0.0623,-0.0656,-0.0696,-0.0717,-0.0719,-0.0699,-0.0684,-0.0626,-0.0602,-0.0451,-0.0366,-0.0145,0.002,0.0174,0.0212,0.0248,0.0254,0.0253,0.018,0.0088,0.0176,0,0,0,0,0,-0.0566,-0.0591,-0.063,-0.0674,-0.0715,-0.0735,-0.0741,-0.0732,-0.0708,-0.0655,-0.0624,-0.0482,-0.0256,-0.0164,-0.0007,0.0032,0.0235,0.0219,0.0279,0.0406,0.0404,0.034,0,0,0,0,0,0,-0.0572,-0.0612,-0.063,-0.0682,-0.0714,-0.0755,-0.0758,-0.0741,-0.0697,-0.0658,-0.0531,-0.0466,-0.0237,-0.0348,-0.0014,0.0031,0.0086,0.0329,0.0332,0.0408,0.0405,0.0403,0.0337,0,0,0,0,0]}]]